When you browse on this site, cookies collect data to enhance your experience and personalize the content and advertising you see.
Visit our Privacy Policy to learn more. By continuing to use the site, you agree to this use of cookies and data.
  • In Portugal
  • List of Countries
  • For 7 days
  • Water Temperature
  • Satellite Maps
  • Weather Map
  • Weather Widgets
  • user-avatar
    Login

    Hourly Weather Chernomorec

    Today, 18 February, Monday

    Time Temperature Precipitation Wind Pressure Humidity
    00:00 +7°C° 0 mm 2 mps 768 mmHg 69%
    01:00 +7°C° 0 mm 2 mps 767 mmHg 70%
    02:00 +7°C° 0 mm 2 mps 767 mmHg 69%
    03:00 +6°C° 0 mm 2 mps 767 mmHg 69%
    04:00 +6°C° 0 mm 2 mps 767 mmHg 69%
    05:00 +6°C° 0 mm 2 mps 767 mmHg 69%
    06:00 +6°C° 0 mm 2 mps 767 mmHg 69%
    07:00 +6°C° 0 mm 2 mps 767 mmHg 68%
    08:00 +7°C° 0 mm 2 mps 767 mmHg 68%
    09:00 +8°C° 0 mm 2 mps 768 mmHg 63%
    10:00 +10°C° 0 mm 2 mps 768 mmHg 58%
    11:00 +13°C° 0 mm 2 mps 768 mmHg 53%
    12:00 +13°C° 0 mm 2 mps 768 mmHg 52%
    13:00 +14°C° 0 mm 2 mps 767 mmHg 51%
    14:00 +15°C° 0 mm 2 mps 767 mmHg 49%
    15:00 +14°C° 0 mm 2 mps 767 mmHg 54%
    16:00 +12°C° 0 mm 3 mps 767 mmHg 59%
    17:00 +11°C° 0 mm 3 mps 767 mmHg 64%
    18:00 +10°C° 0 mm 3 mps 767 mmHg 70%
    19:00 +9°C° 0 mm 3 mps 767 mmHg 76%
    20:00 +8°C° 0 mm 3 mps 768 mmHg 82%
    21:00 +8°C° 0 mm 2 mps 768 mmHg 84%
    22:00 +8°C° 0 mm 2 mps 768 mmHg 86%
    23:00 +7°C° 0 mm 2 mps 768 mmHg 88%

    Tomorrow, 19 February, Tuesday

    Time Temperature Precipitation Wind Pressure Humidity
    00:00 +7°C° 0 mm 2 mps 768 mmHg 88%
    01:00 +8°C° 0 mm 1 mps 768 mmHg 89%
    02:00 +8°C° 0 mm 1 mps 768 mmHg 89%
    03:00 +8°C° 0 mm 1 mps 768 mmHg 89%
    04:00 +7°C° 0 mm 1 mps 768 mmHg 90%
    05:00 +7°C° 0 mm 1 mps 768 mmHg 90%
    06:00 +7°C° 0 mm 2 mps 768 mmHg 90%
    07:00 +7°C° 0 mm 2 mps 768 mmHg 90%
    08:00 +7°C° 0 mm 2 mps 768 mmHg 89%
    09:00 +8°C° 0 mm 2 mps 768 mmHg 83%
    10:00 +10°C° 0 mm 3 mps 768 mmHg 76%
    11:00 +11°C° 0 mm 3 mps 768 mmHg 69%
    12:00 +12°C° 0 mm 3 mps 768 mmHg 67%
    13:00 +12°C° 0 mm 3 mps 767 mmHg 65%
    14:00 +13°C° 0 mm 3 mps 767 mmHg 62%
    15:00 +12°C° 0 mm 4 mps 766 mmHg 66%
    16:00 +11°C° 0 mm 4 mps 766 mmHg 70%
    17:00 +11°C° 0 mm 4 mps 766 mmHg 73%
    18:00 +10°C° 0 mm 4 mps 766 mmHg 77%
    19:00 +8°C° 0 mm 4 mps 766 mmHg 81%
    20:00 +7°C° 0 mm 4 mps 766 mmHg 85%
    21:00 +8°C° 0 mm 3 mps 766 mmHg 86%
    22:00 +8°C° 0 mm 3 mps 766 mmHg 86%
    23:00 +7°C° 0 mm 3 mps 766 mmHg 86%

    Day after tomorrow, 20 February, Wednesday

    Time Temperature Precipitation Wind Pressure Humidity
    00:00 +7°C° 0 mm 2 mps 766 mmHg 86%
    01:00 +7°C° 0 mm 2 mps 765 mmHg 86%
    02:00 +8°C° 0 mm 1 mps 765 mmHg 86%
    03:00 +8°C° 0 mm 1 mps 765 mmHg 86%
    04:00 +6°C° 0 mm 2 mps 765 mmHg 86%
    05:00 +6°C° 0 mm 2 mps 764 mmHg 87%
    06:00 +6°C° 0 mm 2 mps 764 mmHg 85%
    07:00 +7°C° 0 mm 2 mps 764 mmHg 83%
    08:00 +7°C° 0 mm 2 mps 765 mmHg 81%
    09:00 +9°C° 0 mm 2 mps 765 mmHg 74%
    10:00 +12°C° 0 mm 2 mps 765 mmHg 66%
    11:00 +13°C° 0 mm 2 mps 765 mmHg 59%
    12:00 +14°C° 0 mm 2 mps 764 mmHg 56%
    13:00 +15°C° 0 mm 2 mps 764 mmHg 54%
    14:00 +16°C° 0 mm 2 mps 764 mmHg 51%
    15:00 +16°C° 0 mm 2 mps 763 mmHg 54%
    16:00 +16°C° 0 mm 2 mps 763 mmHg 56%
    17:00 +15°C° 0 mm 2 mps 763 mmHg 58%
    18:00 +14°C° 0 mm 2 mps 764 mmHg 61%
    19:00 +13°C° 0 mm 2 mps 764 mmHg 64%
    20:00 +12°C° 0 mm 2 mps 764 mmHg 66%
    21:00 +10°C° 0 mm 2 mps 765 mmHg 67%
    22:00 +10°C° 0 mm 3 mps 765 mmHg 67%
    23:00 +9°C° 0 mm 3 mps 765 mmHg 68%

    21 February, Thursday

    Time Temperature Precipitation Wind Pressure Humidity
    00:00 +8°C° 0 mm 4 mps 765 mmHg 68%
    01:00 +8°C° 0 mm 4 mps 766 mmHg 69%
    02:00 +7°C° 0 mm 4 mps 766 mmHg 70%
    03:00 +7°C° 0 mm 4 mps 766 mmHg 70%
    04:00 +6°C° 0 mm 4 mps 766 mmHg 71%
    05:00 +6°C° 0 mm 4 mps 766 mmHg 72%
    06:00 +6°C° 0 mm 4 mps 767 mmHg 72%
    07:00 +7°C° 0 mm 3 mps 768 mmHg 72%
    08:00 +7°C° 0 mm 3 mps 768 mmHg 73%
    09:00 +8°C° 0 mm 3 mps 768 mmHg 69%
    10:00 +9°C° 0 mm 2 mps 769 mmHg 65%
    11:00 +10°C° 0 mm 2 mps 769 mmHg 62%
    12:00 +12°C° 0 mm 2 mps 769 mmHg 60%
    13:00 +13°C° 0 mm 2 mps 768 mmHg 58%
    14:00 +13°C° 0 mm 1 mps 768 mmHg 56%
    15:00 +13°C° 0 mm 2 mps 768 mmHg 58%
    16:00 +12°C° 0 mm 2 mps 768 mmHg 61%
    17:00 +12°C° 0 mm 2 mps 768 mmHg 64%
    18:00 +10°C° 0 mm 2 mps 768 mmHg 70%
    19:00 +9°C° 0 mm 2 mps 768 mmHg 75%
    20:00 +8°C° 0 mm 2 mps 768 mmHg 81%
    21:00 +8°C° 0 mm 2 mps 768 mmHg 82%
    22:00 +8°C° 0 mm 2 mps 768 mmHg 82%
    23:00 +8°C° 0 mm 2 mps 768 mmHg 83%

    22 February, Friday

    Time Temperature Precipitation Wind Pressure Humidity
    00:00 +7°C° 0 mm 2 mps 768 mmHg 82%
    01:00 +7°C° 0 mm 2 mps 768 mmHg 82%
    02:00 +7°C° 0 mm 2 mps 768 mmHg 81%
    03:00 +7°C° 0 mm 2 mps 767 mmHg 81%
    04:00 +7°C° 0 mm 2 mps 767 mmHg 81%
    05:00 +6°C° 0 mm 2 mps 767 mmHg 80%
    06:00 +6°C° 0 mm 2 mps 767 mmHg 80%
    07:00 +7°C° 0 mm 2 mps 767 mmHg 79%
    08:00 +7°C° 0 mm 2 mps 767 mmHg 78%
    09:00 +8°C° 0 mm 3 mps 767 mmHg 70%
    10:00 +10°C° 0 mm 3 mps 767 mmHg 62%
    11:00 +11°C° 0 mm 3 mps 767 mmHg 54%
    12:00 +12°C° 0 mm 3 mps 766 mmHg 55%
    13:00 +12°C° 0 mm 3 mps 766 mmHg 55%
    14:00 +12°C° 0 mm 4 mps 766 mmHg 56%
    15:00 +11°C° 0.3 mm 4 mps 766 mmHg 62%
    16:00 +10°C° 0.3 mm 4 mps 766 mmHg 67%
    17:00 +8°C° 0.3 mm 5 mps 766 mmHg 73%
    18:00 +8°C° 0.2 mm 5 mps 767 mmHg 75%
    19:00 +7°C° 0.2 mm 6 mps 767 mmHg 76%
    20:00 +6°C° 0.2 mm 7 mps 768 mmHg 78%
    21:00 +5°C° 0.3 mm 8 mps 769 mmHg 75%
    22:00 +2°C° 0.3 mm 10 mps 769 mmHg 72%
    23:00 +1°C° 0.3 mm 11 mps 770 mmHg 70%

    23 February, Saturday

    Time Temperature Precipitation Wind Pressure Humidity
    00:00 -1°C° 0 mm 11 mps 771 mmHg 68%
    01:00 0°C° 0 mm 10 mps 772 mmHg 67%
    02:00 -2°C° 0 mm 10 mps 773 mmHg 65%
    03:00 -3°C° 0 mm 10 mps 773 mmHg 63%
    04:00 -4°C° 0 mm 10 mps 774 mmHg 61%
    05:00 -5°C° 0 mm 10 mps 775 mmHg 59%
    06:00 -5°C° 0 mm 10 mps 776 mmHg 57%
    07:00 -5°C° 0 mm 10 mps 776 mmHg 55%
    08:00 -7°C° 0 mm 10 mps 777 mmHg 53%
    09:00 -5°C° 0 mm 10 mps 777 mmHg 50%
    10:00 -4°C° 0 mm 10 mps 777 mmHg 48%
    11:00 -4°C° 0 mm 10 mps 778 mmHg 45%
    12:00 -3°C° 0 mm 10 mps 777 mmHg 43%
    13:00 -3°C° 0 mm 9 mps 777 mmHg 40%
    14:00 -1°C° 0 mm 9 mps 777 mmHg 38%
    15:00 -1°C° 0 mm 9 mps 777 mmHg 38%
    16:00 -1°C° 0 mm 9 mps 777 mmHg 38%
    17:00 -2°C° 0 mm 8 mps 777 mmHg 39%
    18:00 -2°C° 0 mm 8 mps 777 mmHg 40%
    19:00 -2°C° 0 mm 7 mps 777 mmHg 42%
    20:00 -3°C° 0 mm 6 mps 777 mmHg 43%
    21:00 -3°C° 0 mm 6 mps 776 mmHg 43%
    22:00 -3°C° 0 mm 6 mps 776 mmHg 43%
    23:00 -3°C° 0 mm 6 mps 776 mmHg 43%
    Show more